This demonstration page uses our WeatherBlox Daily Observations layout. Learn more.

Left ArrowRight Arrow

39.12711, -84.51439

Hourly Observations for July 4, 2017

Temp ( °F °C ) Dew Point ( °F °C ) Humidity (%) Winds ( mph kmh ) Pressure ( in mb ) Visibility ( mi km ) Precip ( " mm )
12:53 am 00:53 Clear 69 20.6 66 18.9 90 90 N N/A 30.03 1017 9 14 N/A
1:53 am 01:53 Clear 68 20 67 19.4 96 96 N N/A 30.02 1017 7 11 N/A
2:53 am 02:53 Clear with Mist and Fog 68 20 67 19.4 96 96 N N/A 30.02 1017 5 8 N/A
3:46 am 03:46 Clear with Mist and Fog 67 19.4 67 19.4 100 100 ENE 3 6 30.00 1016 3 4 N/A
3:53 am 03:53 Clear with Mist and Fog 66 18.9 66 18.9 100 100 ENE 3 6 30.02 1017 3 4 N/A
4:08 am 04:08 Clear with Mist and Fog 66 18.9 66 18.9 100 100 N N/A 30.00 1016 3 5 N/A
4:18 am 04:18 Clear with Mist and Fog 65 18.3 65 18.3 100 100 N N/A 30.00 1016 1 2 N/A
4:31 am 04:31 Clear with Mist and Fog 66 18.9 66 18.9 100 100 N N/A 30.00 1016 3 4 N/A
4:43 am 04:43 Clear with Mist and Fog 66 18.9 65 18.3 96 96 N N/A 30.00 1016 3 5 N/A
4:53 am 04:53 Clear with Mist and Fog 66 18.9 66 18.9 100 100 NNE 3 6 30.02 1017 3 4 N/A
5:36 am 05:36 Clear with Mist and Fog 65 18.3 65 18.3 100 100 N N/A 30.00 1016 1 2 N/A
5:53 am 05:53 Partly Cloudy with Mist and Fog 65 18.3 65 18.3 100 100 N N/A 30.03 1017 1 1 N/A
6:01 am 06:01 Mostly Cloudy with Mist and Fog 66 18.9 65 18.3 96 96 N N/A 30.00 1016 2 3 N/A
6:09 am 06:09 Mostly Cloudy with Mist and Fog 65 18.3 65 18.3 100 100 N N/A 30.03 1017 3 5 N/A
6:17 am 06:17 Partly Cloudy with Mist and Fog 65 18.3 65 18.3 100 100 N N/A 30.03 1017 2 3 N/A
6:32 am 06:32 Partly Cloudy with Mist and Fog 64 17.8 64 17.8 100 100 N N/A 30.03 1017 1 1 N/A
6:46 am 06:46 Partly Cloudy with Mist and Fog 65 18.3 65 18.3 100 100 N N/A 30.03 1017 2 2 N/A
6:53 am 06:53 Sunny with Patchy Fog 65 18.3 65 18.3 100 100 N N/A 30.04 1017 5 8 N/A
7:53 am 07:53 Sunny with Mist and Fog 69 20.6 68 20 96 96 N N/A 30.06 1018 4 6 N/A
8:53 am 08:53 Sunny with Mist and Fog 73 22.8 69 20.6 87 87 N N/A 30.06 1018 6 10 N/A
9:53 am 09:53 Mostly Sunny 76 24.4 70 21.1 82 82 N N/A 30.06 1018 8 13 N/A
10:53 am 10:53 Sunny 81 27.2 70 21.1 69 69 N N/A 30.05 1018 10 16 N/A
11:53 am 11:53 Sunny 80 26.7 71 21.7 74 74 S 10 17 30.06 1018 10 16 N/A
12:53 pm 12:53 Sunny 82 27.8 69 20.6 65 65 SE 8 13 30.06 1018 10 16 N/A
1:53 pm 13:53 Partly Cloudy 82 27.8 70 21.1 67 67 SSE 9 15 30.05 1018 10 16 N/A
2:53 pm 14:53 Partly Cloudy 83 28.3 73 22.8 72 72 SSE 14 22 30.04 1017 10 16 N/A
3:53 pm 15:53 Mostly Sunny 83 28.3 71 21.7 67 67 S 8 13 30.03 1017 10 16 N/A
4:53 pm 16:53 Mostly Sunny 83 28.3 70 21.1 65 65 S 7 11 30.02 1017 10 16 N/A
5:53 pm 17:53 Partly Cloudy 83 28.3 70 21.1 65 65 S 5 7 30.01 1016 10 16 N/A
6:53 pm 18:53 Partly Cloudy 83 28.3 68 20 61 61 E 3 6 30.00 1016 10 16 N/A
7:53 pm 19:53 Sunny 80 26.7 70 21.1 71 71 SE 3 6 30.01 1016 10 16 N/A
8:53 pm 20:53 Sunny 77 25 71 21.7 82 82 N N/A 30.02 1017 10 16 N/A
9:53 pm 21:53 Clear 77 25 70 21.1 79 79 N N/A 30.04 1017 10 16 N/A
10:53 pm 22:53 Clear 72 22.2 70 21.1 94 94 N N/A 30.06 1018 10 16 N/A
11:53 pm 23:53 Clear with Mist and Fog 71 21.7 70 21.1 96 96 N N/A 30.06 1018 5 8 N/A

Powered by AerisWeather